www.pogodaiklimat.ru

Погода и климат >> Архив погоды >> Боливия >> Concepcion


ПОГОДА в Concepcion

  • Прогноз погоды в Concepcion
  • Монитор погоды в Concepcion
  • Климат города

АРХИВ ПОГОДЫ в Concepcion

Время (UTC), дата Ветер
(напр.,м/с)
 
Видим.   Явления Облачность Т
(С)
Тd
(С)
f
(%)
Тe
(С)
Тes
(С)
Комфортность P
(гПа)
Po
(гПа)
Тmin
(С)
Tmax
(С)
R
(мм)
R24
(мм)
S
(см)
15 9.07 Ю 10 30 км 1/1 500 м
[Sc]
+14.5 +6.2 57 +12 +12 1028.1 969.3
18 9.07 Ю 10 30 км 9/9 500 м
[Sc]
+15.2 +7.2 59 +13 +13 1026.2 967.7
21 9.07 Ю 6 30 км 9/9 600 м
[Sc]
+14.3 +6.4 59 +12 +12 1025.0 966.2 +17.0
12 10.07 Ю 6 30 км 6/6 600 м
[Sc]
+9.5 +7.5 87 +6 +6 1027.0 967.9 +8.2
15 10.07 Ю 5 30 км ясно +13.5 +6.0 60 +12 +18 1027.2 968.3
18 10.07 Ю 5 30 км ясно +17.4 +7.4 52 +17 +22 1022.8 964.8
21 10.07 Ю 3 30 км ясно +18.4 +8.7 53 +19 +19 1020.6 962.3 +19.8
12 11.07 Ю 2 30 км ясно +9.3 +6.8 84 +8 +10 1020.8 962.3 +7.2
15 11.07 ЮВ 3 30 км ясно +17.0 +10.1 64 +17 +28 1020.8 962.3
18 11.07 штиль 0 30 км ясно +23.0 +13.5 55 +26 +40 жарко 1018.1 959.6
21 11.07 штиль 0 20 км дым ясно +24.0 +14.8 56 +27 +27 жарко 1016.3 957.8 +25.1
12 12.07 штиль 0 30 км 4/0
[Ci fib]
+13.0 +11.2 89 +12 +15 1019.7 961.2 +11.2
15 12.07 штиль 0 30 км 8/0
[Ci]
+22.0 +15.9 68 +26 +40 душно 1020.7 962.2
18 12.07 СЗ 4 30 км 8/0
[Ci]
+27.0 +16.6 53 +31 +36 душно 1018.5 960.0
21 12.07 СЗ 3 30 км 6/0
[Ci]
+26.5 +16.9 56 +30 +31 душно 1017.2 958.7 +28.2
12 13.07 штиль 0 30 км 8/0
[Ci]
+14.5 +13.7 95 +14 +17 1019.0 960.5 +13.0
15 13.07 СЗ 4 20 км дым 8/0
[Ci]
+25.0 +17.6 64 +29 +36 душно 1019.6 961.1
18 13.07 СЗ 6 30 км 8/0
[Ci]
+29.0 +17.3 49 +33 +36 очень
душно
1017.2 958.7
21 13.07 СЗ 4 30 км 8/0
[Ci]
+27.0 +19.9 65 +33 +33 очень
душно
1016.1 957.6 +30.2
12 14.07 штиль 0 30 км 6/0
[Ci]
+18.0 +17.2 95 +18 +21 1016.7 958.2 +16.8
15 14.07 СЗ 3 30 км 8/0
[Ci]
+24.5 +19.5 74 +30 +39 очень
душно
1017.8 959.3
18 14.07 СЗ 6 30 км 8/3 500 м
[Cu hum Ci]
+28.0 +19.5 60 +34 +36 очень
душно
1015.5 957.0
21 14.07 СЗ 5 30 км 6/0
[Ci]
+28.0 +19.5 60 +34 +34 очень
душно
1012.8 955.2 +29.3
12 15.07 штиль 0 30 км 9/0
[Ci sp]
+19.0 +18.6 98 +21 +23 комфорт 1015.1 956.6 +18.0
15 15.07 СЗ 5 30 км 8/0
[Ci sp]
+26.7 +20.4 68 +33 +38 очень
душно
1015.8 957.9
18 15.07 С 8 30 км 8/8 500 м
[Cu med, cong]
+30.0 +19.7 54 +36 +36 очень
душно
1014.5 956.0
21 15.07 С 5 30 км 1/1 500 м
[Cu hum]
+29.5 +20.4 58 +36 +37 очень
душно
1013.7 955.2 +31.0

 

Местоположение метеостанции Concepcion (Боливия): широта -16.14 долгота -62.01 высота над уровнем моря 497 м.

В архиве по умолчанию представлена погода в Concepcion за последнюю неделю. Архивные данные за месяц целиком и за предыдущие месяцы, начиная с января 2011 года, Вы можете получить, выбрав интересующий диапазон дат из раскрывающегося списка и нажав кнопку "Ввод!".


*Определитесь, кто Вы:
робот инопланетянин человек

Внимание! Время в таблицах - всемирное. Для получения местного времени необходимо прибавить поправку, которая в Concepcion равна -4 ч.

Смотрите также архив погоды в соседних городах и на ближайших метеорологических станциях:

Погода в San Javier (Боливия) (50 км)
Погода в San Ignacio De Velasco (Боливия) (115 км)
Погода в Ascencion De Guaray (Боливия) (126 км)
Погода в Viru-Viru (Боливия) (204 км)
Погода в Santa Cruz (Боливия) (223 км)
Погода в San Jose De Chiquitos (Боливия) (229 км)
Погода в Vila Bela da S Trind (Бразилия) (258 км)
Погода в Pontes E Lacerda (Бразилия) (302 км)
Погода в Vallegrande (Боливия) (340 км)
Погода в Robore (Боливия) (340 км)

Пояснения к столбцам:

Ветер - указаны скорость ветра в м/с - средняя за 10 мин, порывы в срок и между сроками (в фигурных скобках) и направление, откуда дует ветер: С - северный, СВ - северо-восточный, В - восточный, ЮВ - юго-восточный, Ю - южный, ЮЗ - юго-западный, З - западный, СЗ - северо-западный.
Видимость - горизонтальная дальность видимости в метрах или километрах. При видимости от 1 до 10 км при отсутствии осадков обычно наблюдается дымка, при ухудшении видимости до 1 км и менее - туман. В сухую погоду видимость может ухудшаться дымом, пылью или мглою.
Явления - указаны атмосферные явления, наблюдавшиеся в срок или в последний час перед сроком; фигурными скобками обозначены явления, наблюдавшиеся между сроками (за 1-3 часа до срока); квадратными скобками обозначены град или гололедные отложения с указанием их диаметра в мм.
Облачность - указаны через наклонную черту общая и нижняя облачность в баллах и высота нижней границы облаков в метрах; квадратными скобками обозначены формы облаков: Ci - перистые, Cs - перисто-слоистые, Cc - перисто-кучевые, Ac - высококучевые, As - высокослоистые, Sc - слоисто-кучевые, Ns - слоисто-дождевые, Cu - кучевые, Cb - кучево-дождевые. Подробнее классификацию облаков см. в Атласе облаков (PDF).
T - Температура воздуха - температура, измеренная на высоте 2 м над землей.
Td - Температура точки росы - температура, при понижении до которой содержащийся в воздухе водяной пар достигнет насыщения.
f - Относительная влажность воздуха - влажноcть воздуха, измеренная на высоте 2 м над землей.
Te - Эффективная температура - температура, которую ощущает одетый по сезону человек в тени. Характеристика душности погоды. При расчете учитывается влияние влажности воздуха и скорости ветра на теплоощущения человека.
Tes - Эффективная температура на солнце - температура, которую ощущает человек, с поправкой на солнечный нагрев. Характеристика знойности погоды. Зависит от высоты солнца над горизонтом, облачности и скорости ветра. Ночью, в пасмурную погоду, а также при ветре 12 м/с и более поправка равна нулю.
P - Атмосферное давление - приведенное к уровню моря атмосферное давление.
Po - Атмосферное давление - измеренное на уровне метеостанции атмосферное давление.
Tmin - Минимальная температура - минимум температуры воздуха на высоте 2 м над землей.
Tmax - Максимальная температура - максимум температуры воздуха на высоте 2 м над землей.
R - Количество осадков - Количество выпавших осадков за период времени, мм. При наведении курсора мыши на число - период времени, за который выпало указанное количество осадков.
R24 - Количество осадков - Количество выпавших осадков за 24 часа, мм.
S - Снежный покров - Высота снежного покрова, см. При наведении курсора мыши на число - состояние снежного покрова и степень покрытия местности в баллах.